Location: Central Falls
(41.8900°N, 71.3929°W)
Time: 15:20:14
(UTC+00:00)

Vanguard 1 Rocket - Pass Details

Date: 03 December 2023
Orbit: 654 x 4218 km, 34.3° (Epoch: 24 February)

Event Time Altitude Azimuth Distance (km) Brightness Sun altitude
Rises 16:45:37 0° 271° (W) 4,551 11.0 25.9°
Reaches altitude 10° 16:52:14 10° 235° (SW) 2,763 10.5 25.9°
Maximum altitude 16:53:19 10° 225° (SW) 2,613 10.6 25.8°
Drops below altitude 10° 16:54:21 10° 215° (SW) 2,540 10.8 25.8°
Sets 16:58:58 0° 173° (S) 3,090 11.4 25.7°
